Starlink 30259

operational
NORAD ID: 57521 Int'l Des: 2023-115 Owner: SPXS Country: US Constellation: starlink
LEOCIRCULAR

Starlink 30259について

説明を読み込み中...

リアルタイム位置

3D地球を読み込み中...

次回通過

高度履歴

Altitude vs Time

uPlot chart will show altitude changes over time

軌道要素

1 57521U 23115A 25354.53281306 -.00000467 00000-0 -19473-4 0 9996
2 57521 43.0044 75.1446 0001496 276.7599 83.3073 15.02530901131622
Epoch: Dec 20, 2025 • Age: 9 hours

現在のステータス

高度 569.4 km
速度 7.58 km/s
衛星直下点 -37.74°S, 108.66°W
打ち上げ日 Aug 8, 2023
運用期間 2.3 years
タイプ internet

技術仕様

分類 Payload
質量 730.00 kg
乾燥質量 700.00 kg
総質量 730.00 kg
長さ 0.30 m
直径 4.10 m
スパン 29.00 m
形状 Box + pan
製造者 SPXS
バスタイプ Starlink V2M
フェーズステータス In Orbit
所有者/国 SPXS/US

大規模コンステレーション

Loading constellations...